Location: Bemmer
(51.5498°N, 5.6249°E)
Time: 01:12:36
(UTC+00:00)

Cosmos 1707 Rocket - Pass Details

Date: 03 March 2021
Orbit: 604 x 632 km, 82.5° (Epoch: 13 April)

Event Time Altitude Azimuth Distance (km) Brightness Sun altitude
Rises 17:55:49 0° 348° (NNW) 2,911 7.1 -6.1°
Reaches altitude 10° 17:58:04 10° 346° (NNW) 1,996 6.3 -6.5°
Maximum altitude 18:02:28 74° 263° (W) 646 3.9 -7.1°
Drops below altitude 10° 18:06:48 10° 178° (S) 1,962 6.1 -7.8°
Sets 18:09:00 0° 177° (S) 2,858 6.9 -8.2°
